Anzahl Datensätze: 286
min. Temperatur: 1.9 °C
max. Temperatur: 6.2 °C
max. Windgeschwindigkeit: 35.6 km/h
Niederschlagsumme: 0.6 mm
| Datum |
Zeit |
Temp °C |
Feuchte % |
Taupunkt °C |
Luftdruck hPa |
Wind km/h |
Windrichtung |
Strahlung w/m² |
Niederschlag mm |
|---|---|---|---|---|---|---|---|---|---|
| 20.02.2026 | 00:02 | 2.4 | 93 | 1.4 | 1011.4 | 8.3 | NNO | 0 | 0.0 |
| 20.02.2026 | 00:07 | 2.4 | 93 | 1.4 | 1011.5 | 6.1 | ONO | 0 | 0.0 |
| 20.02.2026 | 00:12 | 2.3 | 93 | 1.3 | 1011.6 | 10.4 | NNW | 0 | 0.0 |
| 20.02.2026 | 00:17 | 2.3 | 93 | 1.3 | 1011.8 | 8.3 | NO | 0 | 0.0 |
| 20.02.2026 | 00:22 | 2.3 | 93 | 1.3 | 1011.9 | 8.3 | NO | 0 | 0.0 |
| 20.02.2026 | 00:27 | 2.3 | 93 | 1.3 | 1012.1 | 4.3 | NNO | 0 | 0.0 |
| 20.02.2026 | 00:32 | 2.3 | 93 | 1.3 | 1012.1 | 10.4 | NNO | 0 | 0.0 |
| 20.02.2026 | 00:37 | 2.2 | 93 | 1.2 | 1012.2 | 10.4 | ONO | 0 | 0.0 |
| 20.02.2026 | 00:42 | 2.2 | 93 | 1.2 | 1012.4 | 8.3 | NNO | 0 | 0.0 |
| 20.02.2026 | 00:47 | 2.2 | 93 | 1.2 | 1012.5 | 4.3 | NNW | 0 | 0.0 |
| 20.02.2026 | 00:52 | 2.2 | 93 | 1.2 | 1012.6 | 8.3 | N | 0 | 0.0 |
| 20.02.2026 | 00:58 | 2.2 | 93 | 1.2 | 1012.7 | 8.3 | NNO | 0 | 0.0 |
| 20.02.2026 | 01:03 | 2.3 | 93 | 1.3 | 1012.8 | 8.3 | NO | 0 | 0.0 |
| 20.02.2026 | 01:08 | 2.3 | 93 | 1.3 | 1012.8 | 8.3 | NO | 0 | 0.0 |
| 20.02.2026 | 01:13 | 2.3 | 93 | 1.3 | 1012.9 | 10.4 | NO | 0 | 0.0 |
| 20.02.2026 | 01:18 | 2.3 | 92 | 1.1 | 1013.0 | 12.6 | ONO | 0 | 0.0 |
| 20.02.2026 | 01:23 | 2.3 | 92 | 1.1 | 1013.0 | 8.3 | NNO | 0 | 0.0 |
| 20.02.2026 | 01:28 | 2.3 | 92 | 1.1 | 1013.0 | 6.1 | ONO | 0 | 0.0 |
| 20.02.2026 | 01:33 | 2.3 | 92 | 1.1 | 1013.1 | 8.3 | ONO | 0 | 0.0 |
| 20.02.2026 | 01:38 | 2.3 | 92 | 1.1 | 1013.2 | 10.4 | ONO | 0 | 0.0 |
| 20.02.2026 | 01:43 | 2.3 | 92 | 1.1 | 1013.3 | 8.3 | NO | 0 | 0.0 |
| 20.02.2026 | 01:48 | 2.3 | 92 | 1.1 | 1013.4 | 6.1 | NO | 0 | 0.0 |
| 20.02.2026 | 01:53 | 2.3 | 92 | 1.1 | 1013.6 | 8.3 | NNO | 0 | 0.0 |
| 20.02.2026 | 01:58 | 2.3 | 92 | 1.1 | 1013.7 | 8.3 | NNO | 0 | 0.0 |
| 20.02.2026 | 02:03 | 2.3 | 92 | 1.1 | 1013.9 | 10.4 | NO | 0 | 0.0 |
| 20.02.2026 | 02:08 | 2.3 | 91 | 1.0 | 1014.0 | 1.8 | NNO | 0 | 0.0 |
| 20.02.2026 | 02:13 | 2.3 | 91 | 1.0 | 1014.2 | 1.8 | N | 0 | 0.0 |
| 20.02.2026 | 02:18 | 2.3 | 91 | 1.0 | 1014.3 | 6.1 | NO | 0 | 0.0 |
| 20.02.2026 | 02:23 | 2.3 | 91 | 1.0 | 1014.4 | 0.0 | NNW | 0 | 0.0 |
| 20.02.2026 | 02:28 | 2.3 | 91 | 1.0 | 1014.5 | 1.8 | N | 0 | 0.0 |
| 20.02.2026 | 02:33 | 2.3 | 91 | 1.0 | 1014.6 | 6.1 | NNW | 0 | 0.0 |
| 20.02.2026 | 02:38 | 2.3 | 91 | 1.0 | 1014.7 | 1.8 | N | 0 | 0.0 |
| 20.02.2026 | 02:43 | 2.2 | 91 | 0.9 | 1014.8 | 8.3 | N | 0 | 0.0 |
| 20.02.2026 | 02:48 | 2.2 | 91 | 0.9 | 1015.0 | 8.3 | NNW | 0 | 0.0 |
| 20.02.2026 | 02:53 | 2.2 | 91 | 0.9 | 1015.0 | 12.6 | N | 0 | 0.0 |
| 20.02.2026 | 02:58 | 2.2 | 91 | 0.9 | 1015.2 | 6.1 | NNO | 0 | 0.0 |
| 20.02.2026 | 03:03 | 2.2 | 91 | 0.9 | 1015.3 | 10.4 | NNW | 0 | 0.0 |
| 20.02.2026 | 03:08 | 2.2 | 91 | 0.9 | 1015.6 | 6.1 | NW | 0 | 0.0 |
| 20.02.2026 | 03:13 | 2.2 | 91 | 0.9 | 1015.6 | 6.1 | NNW | 0 | 0.0 |
| 20.02.2026 | 03:18 | 2.2 | 91 | 0.9 | 1015.7 | 10.4 | N | 0 | 0.0 |
| 20.02.2026 | 03:23 | 2.2 | 91 | 0.9 | 1015.8 | 10.4 | N | 0 | 0.0 |
| 20.02.2026 | 03:28 | 2.2 | 91 | 0.9 | 1015.7 | 6.1 | NNO | 0 | 0.0 |
| 20.02.2026 | 03:33 | 2.2 | 91 | 0.9 | 1015.7 | 4.3 | NNW | 0 | 0.0 |
| 20.02.2026 | 03:38 | 2.2 | 91 | 0.9 | 1015.8 | 4.3 | N | 0 | 0.0 |
| 20.02.2026 | 03:44 | 2.2 | 91 | 0.9 | 1015.8 | 8.3 | N | 0 | 0.0 |
| 20.02.2026 | 03:49 | 2.2 | 90 | 0.7 | 1015.8 | 4.3 | NO | 0 | 0.0 |
| 20.02.2026 | 03:54 | 2.2 | 90 | 0.7 | 1015.8 | 10.4 | NNW | 0 | 0.0 |
| 20.02.2026 | 03:59 | 2.2 | 90 | 0.7 | 1015.8 | 4.3 | NNW | 0 | 0.0 |
| 20.02.2026 | 04:04 | 2.2 | 90 | 0.7 | 1016.0 | 4.3 | N | 0 | 0.0 |
| 20.02.2026 | 04:09 | 2.1 | 90 | 0.6 | 1016.2 | 18.7 | N | 0 | 0.0 |
| 20.02.2026 | 04:14 | 2.1 | 90 | 0.6 | 1016.2 | 6.1 | N | 0 | 0.0 |
| 20.02.2026 | 04:19 | 2.1 | 90 | 0.6 | 1016.3 | 1.8 | NNW | 0 | 0.0 |
| 20.02.2026 | 04:24 | 2.1 | 90 | 0.6 | 1016.4 | 6.1 | NNW | 0 | 0.0 |
| 20.02.2026 | 04:29 | 2.1 | 90 | 0.6 | 1016.5 | 4.3 | NNW | 0 | 0.0 |
| 20.02.2026 | 04:34 | 2.1 | 90 | 0.6 | 1016.6 | 10.4 | N | 0 | 0.0 |
| 20.02.2026 | 04:39 | 2.1 | 89 | 0.5 | 1016.6 | 1.8 | N | 0 | 0.0 |
| 20.02.2026 | 04:44 | 2.1 | 89 | 0.5 | 1016.7 | 1.8 | N | 0 | 0.0 |
| 20.02.2026 | 04:49 | 2.1 | 89 | 0.5 | 1016.7 | 6.1 | N | 0 | 0.0 |
| 20.02.2026 | 04:54 | 2.1 | 89 | 0.5 | 1016.8 | 6.1 | N | 0 | 0.0 |
| 20.02.2026 | 04:59 | 2.1 | 89 | 0.5 | 1016.8 | 6.1 | NO | 0 | 0.0 |
| 20.02.2026 | 05:04 | 2.1 | 89 | 0.5 | 1016.9 | 18.7 | NNO | 0 | 0.0 |
| 20.02.2026 | 05:09 | 2.1 | 89 | 0.5 | 1017.0 | 8.3 | N | 0 | 0.0 |
| 20.02.2026 | 05:14 | 2.1 | 89 | 0.5 | 1017.0 | 12.6 | ONO | 0 | 0.0 |
| 20.02.2026 | 05:19 | 2.1 | 89 | 0.5 | 1017.1 | 6.1 | N | 0 | 0.0 |
| 20.02.2026 | 05:24 | 2.1 | 88 | 0.3 | 1017.3 | 10.4 | ONO | 0 | 0.0 |
| 20.02.2026 | 05:29 | 2.1 | 88 | 0.3 | 1017.4 | 14.4 | ONO | 0 | 0.0 |
| 20.02.2026 | 05:34 | 2.1 | 88 | 0.3 | 1017.4 | 10.4 | NNO | 0 | 0.0 |
| 20.02.2026 | 05:39 | 2.1 | 88 | 0.3 | 1017.7 | 16.6 | NNO | 0 | 0.0 |
| 20.02.2026 | 05:44 | 2.1 | 88 | 0.3 | 1017.8 | 4.3 | O | 0 | 0.0 |
| 20.02.2026 | 05:49 | 2.1 | 88 | 0.3 | 1017.9 | 1.8 | NNO | 0 | 0.0 |
| 20.02.2026 | 05:54 | 2.2 | 88 | 0.4 | 1018.0 | 1.8 | NO | 0 | 0.0 |
| 20.02.2026 | 05:59 | 2.2 | 88 | 0.4 | 1018.1 | 4.3 | NNO | 0 | 0.0 |
| 20.02.2026 | 06:04 | 2.2 | 88 | 0.4 | 1018.2 | 1.8 | NO | 0 | 0.0 |
| 20.02.2026 | 06:09 | 2.1 | 88 | 0.3 | 1018.3 | 8.3 | N | 0 | 0.0 |
| 20.02.2026 | 06:14 | 2.1 | 88 | 0.3 | 1018.4 | 6.1 | NO | 0 | 0.0 |
| 20.02.2026 | 06:19 | 2.1 | 88 | 0.3 | 1018.5 | 4.3 | N | 0 | 0.0 |
| 20.02.2026 | 06:24 | 2.1 | 88 | 0.3 | 1018.5 | 4.3 | NNW | 0 | 0.0 |
| 20.02.2026 | 06:30 | 2.1 | 88 | 0.3 | 1018.6 | 4.3 | NO | 0 | 0.0 |
| 20.02.2026 | 06:35 | 2.1 | 88 | 0.3 | 1018.7 | 4.3 | NNO | 0 | 0.0 |
| 20.02.2026 | 06:40 | 2.1 | 88 | 0.3 | 1018.8 | 4.3 | NO | 0 | 0.0 |
| 20.02.2026 | 06:45 | 2.1 | 88 | 0.3 | 1018.9 | 8.3 | NO | 0 | 0.0 |
| 20.02.2026 | 06:50 | 2.1 | 88 | 0.3 | 1019.0 | 6.1 | ONO | 0 | 0.0 |
| 20.02.2026 | 06:55 | 2.1 | 88 | 0.3 | 1019.0 | 8.3 | NO | 0 | 0.0 |
| 20.02.2026 | 07:00 | 2.1 | 88 | 0.3 | 1019.1 | 10.4 | ONO | 0 | 0.0 |
| 20.02.2026 | 07:05 | 2.1 | 88 | 0.3 | 1019.0 | 6.1 | O | 0 | 0.0 |
| 20.02.2026 | 07:10 | 2.0 | 88 | 0.2 | 1019.2 | 12.6 | ONO | 0 | 0.0 |
| 20.02.2026 | 07:15 | 2.0 | 88 | 0.2 | 1019.3 | 4.3 | NO | 0 | 0.0 |
| 20.02.2026 | 07:20 | 2.0 | 88 | 0.2 | 1019.5 | 1.8 | NNW | 0 | 0.0 |
| 20.02.2026 | 07:25 | 2.0 | 88 | 0.2 | 1019.6 | 0.0 | NNO | 0 | 0.0 |
| 20.02.2026 | 07:30 | 1.9 | 88 | 0.1 | 1019.8 | 0.0 | N | 0 | 0.0 |
| 20.02.2026 | 07:35 | 1.9 | 88 | 0.1 | 1019.9 | 4.3 | N | 0 | 0.0 |
| 20.02.2026 | 07:40 | 1.9 | 88 | 0.1 | 1020.0 | 4.3 | N | 5 | 0.0 |
| 20.02.2026 | 07:45 | 1.9 | 88 | 0.1 | 1020.2 | 4.3 | N | 7 | 0.0 |
| 20.02.2026 | 07:50 | 1.9 | 88 | 0.1 | 1020.2 | 0.0 | NNW | 11 | 0.0 |
| 20.02.2026 | 07:55 | 1.9 | 88 | 0.1 | 1020.3 | 0.0 | NNW | 14 | 0.0 |
| 20.02.2026 | 08:00 | 1.9 | 88 | 0.1 | 1020.3 | 4.3 | NNW | 23 | 0.0 |
| 20.02.2026 | 08:05 | 1.9 | 88 | 0.1 | 1020.4 | 4.3 | NNW | 37 | 0.0 |
| 20.02.2026 | 08:10 | 1.9 | 88 | 0.1 | 1020.6 | 4.3 | NNW | 32 | 0.0 |
| 20.02.2026 | 08:15 | 1.9 | 88 | 0.1 | 1020.6 | 4.3 | NNW | 28 | 0.0 |
| 20.02.2026 | 08:20 | 2.0 | 88 | 0.2 | 1020.7 | 1.8 | NNW | 32 | 0.0 |
| 20.02.2026 | 08:25 | 2.0 | 88 | 0.2 | 1020.9 | 6.1 | NNW | 35 | 0.0 |
| 20.02.2026 | 08:30 | 2.0 | 88 | 0.2 | 1021.0 | 6.1 | NNW | 37 | 0.0 |
| 20.02.2026 | 08:35 | 2.1 | 88 | 0.3 | 1021.1 | 6.1 | NNW | 46 | 0.0 |
| 20.02.2026 | 08:40 | 2.2 | 89 | 0.6 | 1021.2 | 1.8 | NNW | 84 | 0.0 |
| 20.02.2026 | 08:45 | 2.2 | 89 | 0.6 | 1021.4 | 6.1 | NW | 42 | 0.0 |
| 20.02.2026 | 08:50 | 2.3 | 89 | 0.7 | 1021.4 | 4.3 | NO | 39 | 0.0 |
| 20.02.2026 | 08:55 | 2.3 | 89 | 0.7 | 1021.4 | 8.3 | N | 70 | 0.0 |
| 20.02.2026 | 09:00 | 2.4 | 89 | 0.8 | 1021.5 | 4.3 | N | 88 | 0.0 |
| 20.02.2026 | 09:05 | 2.4 | 90 | 0.9 | 1021.5 | 8.3 | NNW | 91 | 0.0 |
| 20.02.2026 | 09:10 | 2.4 | 90 | 0.9 | 1021.6 | 1.8 | NNW | 102 | 0.0 |
| 20.02.2026 | 09:15 | 2.4 | 90 | 0.9 | 1021.7 | 4.3 | NNW | 98 | 0.0 |
| 20.02.2026 | 09:20 | 2.6 | 89 | 1.0 | 1021.8 | 4.3 | NW | 88 | 0.0 |
| 20.02.2026 | 09:26 | 2.6 | 89 | 1.0 | 1021.9 | 8.3 | NNW | 86 | 0.0 |
| 20.02.2026 | 09:31 | 2.6 | 89 | 1.0 | 1022.0 | 4.3 | N | 91 | 0.0 |
| 20.02.2026 | 09:36 | 2.7 | 89 | 1.1 | 1022.1 | 1.8 | WNW | 91 | 0.0 |
| 20.02.2026 | 09:41 | 2.7 | 89 | 1.1 | 1022.1 | 0.0 | NNW | 91 | 0.0 |
| 20.02.2026 | 09:46 | 2.7 | 89 | 1.1 | 1022.1 | 1.8 | NNW | 102 | 0.0 |
| 20.02.2026 | 09:51 | 2.8 | 88 | 1.0 | 1022.1 | 4.3 | NNW | 113 | 0.0 |
| 20.02.2026 | 09:56 | 2.9 | 88 | 1.1 | 1022.1 | 4.3 | NNW | 114 | 0.0 |
| 20.02.2026 | 10:01 | 3.0 | 88 | 1.2 | 1022.1 | 4.3 | NNO | 134 | 0.0 |
| 20.02.2026 | 10:06 | 3.0 | 87 | 1.0 | 1022.1 | 8.3 | NNO | 125 | 0.0 |
| 20.02.2026 | 10:11 | 3.1 | 87 | 1.1 | 1022.2 | 6.1 | NNW | 142 | 0.0 |
| 20.02.2026 | 10:16 | 3.2 | 87 | 1.2 | 1022.3 | 0.0 | NNW | 141 | 0.0 |
| 20.02.2026 | 10:21 | 3.4 | 87 | 1.4 | 1022.4 | 1.8 | NNW | 132 | 0.0 |
| 20.02.2026 | 10:26 | 3.4 | 86 | 1.3 | 1022.4 | 4.3 | NNW | 130 | 0.0 |
| 20.02.2026 | 10:31 | 3.4 | 86 | 1.3 | 1022.6 | 0.0 | NNW | 116 | 0.0 |
| 20.02.2026 | 10:36 | 3.4 | 86 | 1.3 | 1022.6 | 0.0 | NNW | 134 | 0.0 |
| 20.02.2026 | 10:41 | 3.3 | 86 | 1.2 | 1022.8 | 0.0 | NNW | 156 | 0.0 |
| 20.02.2026 | 10:46 | 3.5 | 86 | 1.4 | 1022.7 | 0.0 | NNW | 156 | 0.0 |
| 20.02.2026 | 10:51 | 3.5 | 86 | 1.4 | 1022.7 | 0.0 | NNW | 160 | 0.0 |
| 20.02.2026 | 10:56 | 3.6 | 86 | 1.5 | 1022.8 | 0.0 | NNW | 153 | 0.0 |
| 20.02.2026 | 11:01 | 3.6 | 84 | 1.2 | 1022.8 | 0.0 | NNW | 155 | 0.0 |
| 20.02.2026 | 11:06 | 3.7 | 86 | 1.6 | 1022.9 | 6.1 | S | 149 | 0.0 |
| 20.02.2026 | 11:11 | 3.8 | 85 | 1.5 | 1023.0 | 0.0 | SW | 135 | 0.0 |
| 20.02.2026 | 11:16 | 3.8 | 84 | 1.3 | 1023.1 | 0.0 | SW | 146 | 0.0 |
| 20.02.2026 | 11:21 | 3.9 | 86 | 1.8 | 1023.2 | 0.0 | SW | 151 | 0.0 |
| 20.02.2026 | 11:26 | 4.1 | 85 | 1.8 | 1023.1 | 4.3 | SW | 155 | 0.0 |
| 20.02.2026 | 11:31 | 4.1 | 84 | 1.6 | 1023.1 | 0.0 | SW | 172 | 0.0 |
| 20.02.2026 | 11:36 | 4.2 | 85 | 1.9 | 1023.1 | 4.3 | SW | 165 | 0.0 |
| 20.02.2026 | 11:41 | 4.2 | 85 | 1.9 | 1023.3 | 4.3 | SW | 120 | 0.0 |
| 20.02.2026 | 11:46 | 4.2 | 85 | 1.9 | 1023.3 | 1.8 | SO | 181 | 0.0 |
| 20.02.2026 | 11:51 | 4.3 | 85 | 2.0 | 1023.3 | 8.3 | S | 246 | 0.0 |
| 20.02.2026 | 11:56 | 4.6 | 85 | 2.3 | 1023.3 | 8.3 | SSO | 322 | 0.0 |
| 20.02.2026 | 12:01 | 4.8 | 84 | 2.3 | 1023.3 | 6.1 | SSW | 302 | 0.0 |
| 20.02.2026 | 12:07 | 4.9 | 84 | 2.4 | 1023.3 | 0.0 | WSW | 244 | 0.0 |
| 20.02.2026 | 12:12 | 5.0 | 83 | 2.4 | 1023.3 | 6.1 | SW | 359 | 0.0 |
| 20.02.2026 | 12:17 | 5.3 | 83 | 2.6 | 1023.3 | 16.9 | SSO | 278 | 0.0 |
| 20.02.2026 | 12:22 | 5.1 | 83 | 2.5 | 1023.4 | 4.3 | SSW | 251 | 0.0 |
| 20.02.2026 | 12:27 | 5.4 | 84 | 2.9 | 1023.4 | 10.4 | SW | 241 | 0.0 |
| 20.02.2026 | 12:32 | 5.3 | 83 | 2.6 | 1023.4 | 8.3 | SSW | 216 | 0.0 |
| 20.02.2026 | 12:37 | 5.2 | 83 | 2.5 | 1023.4 | 4.3 | S | 190 | 0.0 |
| 20.02.2026 | 12:42 | 5.2 | 84 | 2.7 | 1023.4 | 8.3 | SSW | 151 | 0.0 |
| 20.02.2026 | 12:47 | 5.3 | 83 | 2.6 | 1023.4 | 4.3 | SW | 149 | 0.0 |
| 20.02.2026 | 12:52 | 5.3 | 84 | 2.8 | 1023.4 | 10.4 | SW | 141 | 0.0 |
| 20.02.2026 | 12:57 | 5.3 | 84 | 2.8 | 1023.4 | 6.1 | WSW | 174 | 0.0 |
| 20.02.2026 | 13:02 | 5.3 | 84 | 2.8 | 1023.4 | 16.9 | WSW | 229 | 0.0 |
| 20.02.2026 | 13:07 | 5.5 | 84 | 3.0 | 1023.3 | 6.1 | SSW | 294 | 0.0 |
| 20.02.2026 | 13:12 | 5.7 | 84 | 3.2 | 1023.2 | 14.4 | SSW | 244 | 0.0 |
| 20.02.2026 | 13:17 | 5.7 | 83 | 3.0 | 1023.1 | 14.4 | SW | 285 | 0.0 |
| 20.02.2026 | 13:22 | 5.8 | 83 | 3.1 | 1023.1 | 8.3 | SW | 251 | 0.0 |
| 20.02.2026 | 13:27 | 5.9 | 83 | 3.2 | 1023.1 | 8.3 | SSW | 271 | 0.0 |
| 20.02.2026 | 13:32 | 6.0 | 84 | 3.5 | 1023.1 | 16.9 | SSW | 216 | 0.0 |
| 20.02.2026 | 13:37 | 6.1 | 83 | 3.4 | 1023.1 | 12.6 | WSW | 155 | 0.0 |
| 20.02.2026 | 13:42 | 5.8 | 84 | 3.3 | 1023.1 | 8.3 | WSW | 142 | 0.0 |
| 20.02.2026 | 13:47 | 5.7 | 84 | 3.2 | 1023.2 | 14.4 | SSW | 190 | 0.0 |
| 20.02.2026 | 13:52 | 5.7 | 85 | 3.4 | 1023.2 | 10.4 | SW | 204 | 0.0 |
| 20.02.2026 | 13:57 | 5.8 | 84 | 3.3 | 1023.2 | 14.4 | S | 172 | 0.0 |
| 20.02.2026 | 14:02 | 6.0 | 85 | 3.7 | 1023.2 | 12.6 | SSW | 255 | 0.0 |
| 20.02.2026 | 14:07 | 6.1 | 84 | 3.6 | 1023.1 | 10.4 | SW | 250 | 0.0 |
| 20.02.2026 | 14:12 | 6.1 | 84 | 3.6 | 1023.1 | 8.3 | SW | 183 | 0.0 |
| 20.02.2026 | 14:17 | 6.1 | 84 | 3.6 | 1023.2 | 10.4 | SSW | 153 | 0.0 |
| 20.02.2026 | 14:22 | 6.0 | 84 | 3.5 | 1023.2 | 8.3 | SW | 139 | 0.0 |
| 20.02.2026 | 14:27 | 6.1 | 84 | 3.6 | 1023.1 | 4.3 | SW | 134 | 0.0 |
| 20.02.2026 | 14:32 | 6.0 | 84 | 3.5 | 1023.1 | 16.9 | SW | 153 | 0.0 |
| 20.02.2026 | 14:37 | 6.1 | 84 | 3.6 | 1023.1 | 6.1 | SSW | 178 | 0.0 |
| 20.02.2026 | 14:42 | 6.2 | 84 | 3.7 | 1023.1 | 14.4 | SSW | 148 | 0.0 |
| 20.02.2026 | 14:47 | 6.1 | 84 | 3.6 | 1023.1 | 14.4 | SW | 174 | 0.0 |
| 20.02.2026 | 14:53 | 6.2 | 84 | 3.7 | 1023.1 | 10.4 | SSO | 113 | 0.0 |
| 20.02.2026 | 14:58 | 6.1 | 84 | 3.6 | 1023.1 | 18.7 | SSW | 127 | 0.0 |
| 20.02.2026 | 15:03 | 6.1 | 85 | 3.8 | 1023.1 | 8.3 | S | 120 | 0.0 |
| 20.02.2026 | 15:08 | 6.1 | 84 | 3.6 | 1023.1 | 18.7 | SSW | 83 | 0.0 |
| 20.02.2026 | 15:13 | 6.0 | 85 | 3.7 | 1023.0 | 14.4 | SSW | 83 | 0.0 |
| 20.02.2026 | 15:18 | 6.0 | 85 | 3.7 | 1023.0 | 16.9 | SSW | 62 | 0.0 |
| 20.02.2026 | 15:23 | 5.9 | 85 | 3.6 | 1023.0 | 6.1 | SSW | 67 | 0.0 |
| 20.02.2026 | 15:28 | 6.1 | 86 | 3.9 | 1023.1 | 8.3 | SSW | 60 | 0.0 |
| 20.02.2026 | 15:33 | 6.0 | 86 | 3.8 | 1023.2 | 6.1 | SSW | 46 | 0.0 |
| 20.02.2026 | 15:38 | 5.9 | 86 | 3.7 | 1023.2 | 8.3 | WSW | 35 | 0.0 |
| 20.02.2026 | 15:43 | 5.9 | 86 | 3.7 | 1023.3 | 10.4 | SW | 33 | 0.0 |
| 20.02.2026 | 15:48 | 5.9 | 86 | 3.7 | 1023.3 | 12.6 | WSW | 21 | 0.0 |
| 20.02.2026 | 15:53 | 5.9 | 86 | 3.7 | 1023.2 | 12.6 | WSW | 23 | 0.0 |
| 20.02.2026 | 15:58 | 5.8 | 87 | 3.8 | 1023.2 | 14.4 | SW | 26 | 0.0 |
| 20.02.2026 | 16:03 | 5.8 | 87 | 3.8 | 1023.3 | 14.4 | WSW | 26 | 0.0 |
| 20.02.2026 | 16:08 | 5.7 | 88 | 3.9 | 1023.3 | 8.3 | SSW | 25 | 0.0 |
| 20.02.2026 | 16:13 | 5.7 | 88 | 3.9 | 1023.2 | 6.1 | SW | 28 | 0.0 |
| 20.02.2026 | 16:18 | 5.7 | 88 | 3.9 | 1023.2 | 8.3 | S | 28 | 0.0 |
| 20.02.2026 | 16:23 | 5.6 | 89 | 3.9 | 1023.2 | 8.3 | SSW | 33 | 0.0 |
| 20.02.2026 | 16:28 | 5.6 | 89 | 3.9 | 1023.2 | 6.1 | SW | 47 | 0.0 |
| 20.02.2026 | 16:33 | 5.6 | 89 | 3.9 | 1023.0 | 10.4 | SSW | 76 | 0.0 |
| 20.02.2026 | 16:38 | 5.7 | 89 | 4.0 | 1022.9 | 8.3 | SW | 69 | 0.0 |
| 20.02.2026 | 16:43 | 5.8 | 89 | 4.1 | 1023.0 | 4.3 | SW | 79 | 0.0 |
| 20.02.2026 | 16:48 | 5.8 | 88 | 4.0 | 1023.1 | 6.1 | S | 65 | 0.0 |
| 20.02.2026 | 16:53 | 5.8 | 89 | 4.1 | 1023.0 | 10.4 | SSW | 51 | 0.0 |
| 20.02.2026 | 16:58 | 5.8 | 88 | 4.0 | 1023.1 | 6.1 | SSW | 47 | 0.0 |
| 20.02.2026 | 17:03 | 5.8 | 89 | 4.1 | 1023.1 | 4.3 | S | 32 | 0.0 |
| 20.02.2026 | 17:08 | 5.8 | 89 | 4.1 | 1023.1 | 0.0 | SSW | 32 | 0.0 |
| 20.02.2026 | 17:13 | 5.8 | 89 | 4.1 | 1023.0 | 4.3 | SSW | 19 | 0.0 |
| 20.02.2026 | 17:18 | 5.8 | 89 | 4.1 | 1023.1 | 1.8 | SW | 12 | 0.0 |
| 20.02.2026 | 17:23 | 5.8 | 89 | 4.1 | 1023.1 | 4.3 | SSW | 7 | 0.0 |
| 20.02.2026 | 17:28 | 5.8 | 89 | 4.1 | 1023.2 | 6.1 | SW | 7 | 0.0 |
| 20.02.2026 | 17:33 | 5.8 | 89 | 4.1 | 1023.2 | 14.4 | SSW | 5 | 0.0 |
| 20.02.2026 | 17:38 | 5.8 | 89 | 4.1 | 1023.2 | 6.1 | SSW | 0 | 0.0 |
| 20.02.2026 | 17:44 | 5.8 | 89 | 4.1 | 1023.2 | 10.4 | WSW | 0 | 0.0 |
| 20.02.2026 | 17:49 | 5.8 | 89 | 4.1 | 1023.2 | 10.4 | SSW | 0 | 0.0 |
| 20.02.2026 | 17:54 | 5.7 | 89 | 4.0 | 1023.2 | 4.3 | SSW | 0 | 0.0 |
| 20.02.2026 | 17:59 | 5.7 | 90 | 4.2 | 1023.2 | 0.0 | SSW | 0 | 0.0 |
| 20.02.2026 | 18:04 | 5.7 | 90 | 4.2 | 1023.2 | 4.3 | S | 0 | 0.0 |
| 20.02.2026 | 18:09 | 5.7 | 90 | 4.2 | 1023.3 | 6.1 | SSW | 0 | 0.0 |
| 20.02.2026 | 18:14 | 5.6 | 91 | 4.2 | 1023.4 | 6.1 | S | 0 | 0.0 |
| 20.02.2026 | 18:19 | 5.6 | 91 | 4.2 | 1023.4 | 6.1 | SSW | 0 | 0.0 |
| 20.02.2026 | 18:24 | 5.6 | 91 | 4.2 | 1023.5 | 4.3 | S | 0 | 0.0 |
| 20.02.2026 | 18:29 | 5.6 | 91 | 4.2 | 1023.5 | 8.3 | SSW | 0 | 0.0 |
| 20.02.2026 | 18:34 | 5.6 | 91 | 4.2 | 1023.7 | 8.3 | SSW | 0 | 0.0 |
| 20.02.2026 | 18:39 | 5.5 | 92 | 4.3 | 1023.7 | 8.3 | SSW | 0 | 0.0 |
| 20.02.2026 | 18:44 | 5.5 | 92 | 4.3 | 1023.7 | 6.1 | SSW | 0 | 0.0 |
| 20.02.2026 | 18:49 | 5.5 | 92 | 4.3 | 1023.7 | 6.1 | SSW | 0 | 0.0 |
| 20.02.2026 | 18:54 | 5.4 | 92 | 4.2 | 1023.7 | 14.4 | S | 0 | 0.0 |
| 20.02.2026 | 18:59 | 5.4 | 92 | 4.2 | 1023.8 | 8.3 | SSW | 0 | 0.0 |
| 20.02.2026 | 19:04 | 5.4 | 92 | 4.2 | 1023.8 | 6.1 | SW | 0 | 0.0 |
| 20.02.2026 | 19:09 | 5.4 | 93 | 4.4 | 1023.8 | 6.1 | SSW | 0 | 0.0 |
| 20.02.2026 | 19:14 | 5.4 | 92 | 4.2 | 1023.8 | 8.3 | SSW | 0 | 0.0 |
| 20.02.2026 | 19:19 | 5.4 | 93 | 4.4 | 1023.8 | 12.6 | SW | 0 | 0.0 |
| 20.02.2026 | 19:24 | 5.5 | 93 | 4.5 | 1023.9 | 6.1 | SW | 0 | 0.0 |
| 20.02.2026 | 19:29 | 5.5 | 93 | 4.5 | 1023.8 | 8.3 | SSW | 0 | 0.0 |
| 20.02.2026 | 19:34 | 5.5 | 93 | 4.5 | 1023.8 | 14.4 | SW | 0 | 0.0 |
| 20.02.2026 | 19:39 | 5.5 | 93 | 4.5 | 1023.8 | 8.3 | SSW | 0 | 0.0 |
| 20.02.2026 | 19:44 | 5.5 | 93 | 4.5 | 1023.8 | 10.4 | SW | 0 | 0.0 |
| 20.02.2026 | 19:49 | 5.6 | 93 | 4.6 | 1023.7 | 10.4 | SW | 0 | 0.0 |
| 20.02.2026 | 19:54 | 5.6 | 93 | 4.6 | 1023.6 | 12.6 | SSW | 0 | 0.0 |
| 20.02.2026 | 19:59 | 5.6 | 93 | 4.6 | 1023.5 | 12.6 | SSW | 0 | 0.0 |
| 20.02.2026 | 20:04 | 5.6 | 93 | 4.6 | 1023.4 | 16.9 | SW | 0 | 0.0 |
| 20.02.2026 | 20:09 | 5.6 | 93 | 4.6 | 1023.5 | 6.1 | S | 0 | 0.0 |
| 20.02.2026 | 20:14 | 5.6 | 93 | 4.6 | 1023.5 | 6.1 | SSW | 0 | 0.0 |
| 20.02.2026 | 20:19 | 5.6 | 93 | 4.6 | 1023.5 | 8.3 | S | 0 | 0.0 |
| 20.02.2026 | 20:24 | 5.6 | 93 | 4.6 | 1023.4 | 10.4 | SSW | 0 | 0.0 |
| 20.02.2026 | 20:29 | 5.7 | 93 | 4.7 | 1023.4 | 14.4 | SSW | 0 | 0.0 |
| 20.02.2026 | 20:35 | 5.7 | 93 | 4.7 | 1023.5 | 6.1 | SW | 0 | 0.0 |
| 20.02.2026 | 20:40 | 5.7 | 93 | 4.7 | 1023.6 | 12.6 | SW | 0 | 0.0 |
| 20.02.2026 | 20:45 | 5.7 | 93 | 4.7 | 1023.6 | 12.6 | S | 0 | 0.0 |
| 20.02.2026 | 20:50 | 5.7 | 93 | 4.7 | 1023.6 | 12.6 | SSW | 0 | 0.0 |
| 20.02.2026 | 20:55 | 5.7 | 93 | 4.7 | 1023.7 | 6.1 | SW | 0 | 0.0 |
| 20.02.2026 | 21:00 | 5.7 | 93 | 4.7 | 1023.7 | 8.3 | SW | 0 | 0.0 |
| 20.02.2026 | 21:05 | 5.7 | 93 | 4.7 | 1023.8 | 12.6 | SW | 0 | 0.0 |
| 20.02.2026 | 21:10 | 5.7 | 93 | 4.7 | 1023.8 | 8.3 | SW | 0 | 0.0 |
| 20.02.2026 | 21:15 | 5.7 | 93 | 4.7 | 1024.0 | 6.1 | SW | 0 | 0.0 |
| 20.02.2026 | 21:20 | 5.8 | 93 | 4.8 | 1024.0 | 8.3 | W | 0 | 0.0 |
| 20.02.2026 | 21:25 | 5.8 | 93 | 4.8 | 1023.9 | 10.4 | SW | 0 | 0.0 |
| 20.02.2026 | 21:30 | 5.8 | 93 | 4.8 | 1023.9 | 10.4 | SSW | 0 | 0.0 |
| 20.02.2026 | 21:35 | 5.8 | 93 | 4.8 | 1023.9 | 8.3 | SSW | 0 | 0.0 |
| 20.02.2026 | 21:40 | 5.8 | 93 | 4.8 | 1023.8 | 12.6 | SSW | 0 | 0.2 |
| 20.02.2026 | 21:45 | 5.8 | 93 | 4.8 | 1023.7 | 10.4 | SSO | 0 | 0.2 |
| 20.02.2026 | 21:50 | 5.8 | 93 | 4.8 | 1023.7 | 10.4 | SSW | 0 | 0.2 |
| 20.02.2026 | 21:55 | 5.8 | 93 | 4.8 | 1023.7 | 21.2 | SSW | 0 | 0.4 |
| 20.02.2026 | 22:00 | 5.8 | 93 | 4.8 | 1023.7 | 12.6 | SSW | 0 | 0.4 |
| 20.02.2026 | 22:05 | 5.8 | 93 | 4.8 | 1023.6 | 12.6 | SSW | 0 | 0.4 |
| 20.02.2026 | 22:10 | 5.8 | 93 | 4.8 | 1023.5 | 16.9 | S | 0 | 0.4 |
| 20.02.2026 | 22:15 | 5.8 | 93 | 4.8 | 1023.5 | 6.1 | SSW | 0 | 0.4 |
| 20.02.2026 | 22:20 | 5.7 | 93 | 4.7 | 1023.5 | 8.3 | S | 0 | 0.4 |
| 20.02.2026 | 22:25 | 5.7 | 93 | 4.7 | 1023.5 | 10.4 | SSW | 0 | 0.4 |
| 20.02.2026 | 22:30 | 5.7 | 93 | 4.7 | 1023.4 | 8.3 | SW | 0 | 0.4 |
| 20.02.2026 | 22:35 | 5.7 | 93 | 4.7 | 1023.3 | 16.9 | SSW | 0 | 0.4 |
| 20.02.2026 | 22:40 | 5.7 | 93 | 4.7 | 1023.3 | 10.4 | S | 0 | 0.4 |
| 20.02.2026 | 22:45 | 5.7 | 93 | 4.7 | 1023.3 | 6.1 | SSW | 0 | 0.4 |
| 20.02.2026 | 22:50 | 5.7 | 93 | 4.7 | 1023.3 | 12.6 | S | 0 | 0.4 |
| 20.02.2026 | 22:55 | 5.7 | 93 | 4.7 | 1023.2 | 21.2 | SSW | 0 | 0.4 |
| 20.02.2026 | 23:00 | 5.7 | 93 | 4.7 | 1023.2 | 16.9 | SSW | 0 | 0.4 |
| 20.02.2026 | 23:05 | 5.7 | 93 | 4.7 | 1023.1 | 4.3 | S | 0 | 0.4 |
| 20.02.2026 | 23:10 | 5.7 | 93 | 4.7 | 1023.1 | 23.0 | SSW | 0 | 0.4 |
| 20.02.2026 | 23:15 | 5.7 | 93 | 4.7 | 1023.1 | 14.4 | SSW | 0 | 0.4 |
| 20.02.2026 | 23:21 | 5.7 | 93 | 4.7 | 1023.0 | 8.3 | SSW | 0 | 0.4 |
| 20.02.2026 | 23:26 | 5.7 | 93 | 4.7 | 1023.0 | 12.6 | SW | 0 | 0.4 |
| 20.02.2026 | 23:31 | 5.7 | 92 | 4.5 | 1022.9 | 16.9 | S | 0 | 0.4 |
| 20.02.2026 | 23:36 | 5.7 | 92 | 4.5 | 1022.9 | 16.9 | SSW | 0 | 0.4 |
| 20.02.2026 | 23:41 | 5.8 | 92 | 4.6 | 1022.8 | 10.4 | S | 0 | 0.4 |
| 20.02.2026 | 23:46 | 5.8 | 92 | 4.6 | 1022.9 | 23.0 | SSW | 0 | 0.6 |
| 20.02.2026 | 23:51 | 5.8 | 93 | 4.8 | 1022.7 | 16.9 | SW | 0 | 0.6 |
| 20.02.2026 | 23:56 | 5.8 | 93 | 4.8 | 1022.7 | 18.7 | SSW | 0 | 0.6 |